Asheville, NC

8:02 PM EDT on July 27, 2017 (GMT -0400)
Asheville Regional

Weather History for KAVL - November, 2009

Change the Weather History Date:

Friday, November 6, 2009

  Actual Average Record
Temperature  
Mean Temperature 46 °F 50 °F  
Max Temperature 62 °F 62 °F 81 °F (1890)
Min Temperature 30 °F 38 °F 20 °F (1976)
Degree Days  
Heating Degree Days 19 15  
Month to date heating degree days 95 85  
Since 1 July heating degree days 427 420  
Cooling Degree Days 0 0  
Month to date cooling degree days 0 0  
Year to date cooling degree days 774 862  
Moisture  
Dew Point 29 °F    
Average Humidity 53    
Maximum Humidity 85    
Minimum Humidity 21    
Precipitation  
Precipitation 0.00 in 0.11 in 2.67 in (1977)
Month to date precipitation 0.05 0.64  
Year to date precipitation 47.76 38.97  
Snow  
Snow 0.00 in 0.00 in T in (2010)
Month to date snowfall 0.0 0.0  
Since 1 July snowfall 0.0 0.0  
Since 1 September snowfall 0.0 0.0  
Snow Depth 0.00 in    
Sea Level Pressure  
Sea Level Pressure 30.31 in    
Wind  
Wind Speed 5 mph (SSE)    
Max Wind Speed 13 mph    
Max Gust Speed 16 mph    
Visibility 10 miles    
Events      
T = Trace of Precipitation, MM = Missing Value Source: NWS Daily Summary

Daily Weather History Graph

Daily Weather History Graph

Search for Another Location

Airport or City:

Trip Planner

Search our weather history database for the weather conditions in past years. The results will help you decide how hot, cold, wet, or windy it might be!

Date:

Astronomy

Nov. 06, 2009 Rise Set
Actual Time 6:56 AM EST 5:30 PM EST
Civil Twilight 6:30 AM EST 5:56 PM EST
Nautical Twilight 5:59 AM EST 6:27 PM EST
Astronomical Twilight 5:30 AM EST 6:57 PM EST
Moon 8:57 PM EST (11/6) 11:03 AM EST (11/6)
Length of Visible Light 11h 26m
Length of Day
10h 33m
Waning Gibbous, 82% of the Moon is Illuminated
Nov 6
Waning Gibbous
Nov 9
Last Quarter
Nov 16
New
Nov 24
First Quarter
Dec 2
Full

Hourly Weather History & Observations

Time (EST) Temp. Windchill Dew Point Humidity Pressure Visibility Wind Dir Wind Speed Gust Speed Precip Events Conditions
12:54 AM 42.1 °F 36.6 °F 28.0 °F 58% 30.30 in 10.0 mi North 9.2 mph - N/A   Clear
1:54 AM 37.0 °F 32.4 °F 28.0 °F 70% 30.32 in 10.0 mi NW 5.8 mph - N/A   Clear
2:54 AM 35.1 °F 30.1 °F 28.0 °F 76% 30.31 in 10.0 mi NNW 5.8 mph - N/A   Clear
3:54 AM 36.0 °F - 28.0 °F 73% 30.31 in 10.0 mi Calm Calm - N/A   Clear
4:54 AM 37.0 °F 31.0 °F 28.0 °F 70% 30.32 in 10.0 mi North 8.1 mph - 0.01 in   Clear
5:54 AM 33.1 °F 27.7 °F 28.0 °F 82% 30.34 in 10.0 mi NW 5.8 mph - N/A   Clear
6:54 AM 30.9 °F 25.2 °F 27.0 °F 85% 30.36 in 10.0 mi SSE 5.8 mph - N/A   Clear
7:54 AM 35.1 °F 30.1 °F 30.0 °F 82% 30.37 in 10.0 mi NW 5.8 mph - N/A   Clear
8:54 AM 39.0 °F 36.8 °F 32.0 °F 76% 30.38 in 10.0 mi South 3.5 mph - 0.01 in   Clear
9:54 AM 48.0 °F - 28.0 °F 46% 30.36 in 10.0 mi NNW 11.5 mph - 0.02 in   Clear
10:54 AM 52.0 °F - 23.0 °F 32% 30.35 in 10.0 mi NNW 8.1 mph - N/A   Clear
11:54 AM 55.0 °F - 27.0 °F 34% 30.32 in 10.0 mi Calm Calm - N/A   Clear
12:54 PM 57.0 °F - 24.1 °F 28% 30.29 in 10.0 mi Calm Calm - N/A   Clear
1:54 PM 59.0 °F - 21.9 °F 24% 30.27 in 10.0 mi South 4.6 mph - N/A   Clear
2:54 PM 62.1 °F - 23.0 °F 22% 30.25 in 10.0 mi SE 4.6 mph - N/A   Clear
3:54 PM 60.1 °F - 28.9 °F 31% 30.24 in 10.0 mi SSE 8.1 mph - N/A   Clear
4:54 PM 57.9 °F - 30.9 °F 36% 30.25 in 10.0 mi SSE 5.8 mph - N/A   Clear
5:54 PM 52.0 °F - 32.0 °F 47% 30.28 in 10.0 mi South 5.8 mph - N/A   Clear
6:54 PM 50.0 °F - 30.9 °F 48% 30.30 in 10.0 mi Calm Calm - N/A   Clear
7:54 PM 46.9 °F - 32.0 °F 56% 30.31 in 10.0 mi SE 3.5 mph - N/A   Clear
8:54 PM 43.0 °F 41.3 °F 33.1 °F 68% 30.32 in 10.0 mi SE 3.5 mph - N/A   Clear
9:54 PM 41.0 °F - 33.1 °F 73% 30.30 in 10.0 mi Calm Calm - N/A   Clear
10:54 PM 39.0 °F - 33.1 °F 79% 30.30 in 10.0 mi Calm Calm - N/A   Clear
11:54 PM 36.0 °F 33.3 °F 32.0 °F 86% 30.29 in 10.0 mi South 3.5 mph - N/A   Clear